TimeEST,TemperatureF,Dew PointF,Humidity,Sea Level PressureIn,VisibilityMPH,Wind Direction,Wind SpeedMPH,Gust SpeedMPH,PrecipitationIn,Events,Conditions,WindDirDegrees,DateUTC
12:15 AM,55.0,53.1,93,30.14,0.5,SE,3.5,-,N/A,Fog,Fog,140,2013-01-13 05:15:00
12:35 AM,55.0,53.1,93,30.14,0.5,Calm,Calm,-,N/A,Fog,Fog,0,2013-01-13 05:35:00
12:55 AM,55.0,53.1,93,30.14,0.5,SE,3.5,-,N/A,Fog,Fog,130,2013-01-13 05:55:00
1:15 AM,55.0,53.1,93,30.14,0.2,SE,3.5,-,N/A,Fog,Fog,130,2013-01-13 06:15:00
1:55 AM,55.0,53.1,93,30.14,0.5,SSE,3.5,-,N/A,Fog,Fog,150,2013-01-13 06:55:00
2:15 AM,55.0,53.1,93,30.14,0.5,Calm,Calm,-,N/A,Fog,Fog,0,2013-01-13 07:15:00
2:35 AM,55.0,53.1,93,30.14,0.2,Calm,Calm,-,N/A,Fog,Fog,0,2013-01-13 07:35:00
2:55 AM,55.0,53.1,93,30.14,0.2,Calm,Calm,-,N/A,Fog,Fog,0,2013-01-13 07:55:00
3:15 AM,55.0,53.1,93,30.13,0.2,Calm,Calm,-,N/A,Fog,Fog,0,2013-01-13 08:15:00
4:35 AM,55.0,53.1,93,30.13,0.5,Calm,Calm,-,N/A,Fog,Fog,0,2013-01-13 09:35:00
4:55 AM,55.0,53.1,93,30.12,0.5,ESE,4.6,-,N/A,Fog,Fog,120,2013-01-13 09:55:00
5:35 AM,55.0,53.1,93,30.12,0.5,SE,3.5,-,N/A,Fog,Fog,140,2013-01-13 10:35:00
5:55 AM,55.0,53.1,93,30.13,0.5,SSE,3.5,-,N/A,Fog,Fog,150,2013-01-13 10:55:00
6:15 AM,55.0,53.1,93,30.13,0.8,SSE,5.8,-,N/A,,Overcast,160,2013-01-13 11:15:00
6:55 AM,55.0,53.1,93,30.14,0.2,SSE,4.6,-,N/A,Fog,Fog,150,2013-01-13 11:55:00
7:15 AM,55.0,53.1,93,30.14,0.2,SE,3.5,-,N/A,Fog,Fog,140,2013-01-13 12:15:00
7:35 AM,55.0,53.1,93,30.14,0.2,Calm,Calm,-,N/A,Fog,Fog,0,2013-01-13 12:35:00
7:55 AM,55.0,53.1,93,30.14,0.2,SE,3.5,-,N/A,Fog,Fog,140,2013-01-13 12:55:00
8:15 AM,55.0,53.1,93,30.14,0.2,SE,3.5,-,N/A,Fog,Fog,140,2013-01-13 13:15:00
8:35 AM,55.0,53.1,93,30.15,0.2,SSE,3.5,-,N/A,Fog,Fog,160,2013-01-13 13:35:00
8:55 AM,55.0,53.1,93,30.15,0.2,South,4.6,-,N/A,Fog,Fog,170,2013-01-13 13:55:00
9:15 AM,55.0,53.1,93,30.16,0.2,South,5.8,-,N/A,Fog,Fog,170,2013-01-13 14:15:00
9:35 AM,56.1,54.1,93,30.16,0.2,South,4.6,-,N/A,Fog,Fog,180,2013-01-13 14:35:00
9:55 AM,56.3,54.5,94,30.15,0.2,SSE,5.8,-,N/A,Fog,Fog,160,2013-01-13 14:55:00
10:15 AM,56.7,54.7,93,30.15,0.2,South,4.6,-,N/A,Fog,Fog,170,2013-01-13 15:15:00
10:35 AM,57.6,55.6,93,30.16,1.5,South,4.6,-,N/A,,Overcast,170,2013-01-13 15:35:00
10:55 AM,57.6,55.6,93,30.15,1.2,South,3.5,-,N/A,,Overcast,180,2013-01-13 15:55:00
11:15 AM,57.6,55.6,93,30.15,3.0,Calm,Calm,-,N/A,,Overcast,0,2013-01-13 16:15:00
11:35 AM,57.6,55.6,93,30.14,4.0,South,4.6,-,N/A,,Overcast,180,2013-01-13 16:35:00
11:55 AM,58.1,56.1,93,30.13,4.0,Calm,Calm,-,N/A,,Overcast,0,2013-01-13 16:55:00
12:15 PM,58.1,56.3,94,30.12,5.0,South,3.5,-,N/A,,Overcast,180,2013-01-13 17:15:00
1:15 PM,62.6,59.5,90,30.09,7.0,SSE,5.8,-,N/A,,Overcast,160,2013-01-13 18:15:00
1:35 PM,65.3,61.2,86,30.09,10.0,South,4.6,-,N/A,,Mostly Cloudy,170,2013-01-13 18:35:00
1:55 PM,65.3,61.0,86,30.09,10.0,South,3.5,-,N/A,,Scattered Clouds,190,2013-01-13 18:55:00
2:15 PM,65.3,60.1,83,30.09,10.0,SSE,5.8,-,N/A,,Clear,150,2013-01-13 19:15:00
2:35 PM,65.3,59.9,83,30.08,10.0,SE,4.6,-,N/A,,Clear,130,2013-01-13 19:35:00
2:55 PM,65.3,59.9,83,30.09,10.0,SE,5.8,-,N/A,,Clear,140,2013-01-13 19:55:00
3:15 PM,67.3,61.5,82,30.09,10.0,SSE,3.5,-,N/A,,Clear,160,2013-01-13 20:15:00
3:35 PM,70.0,63.5,80,30.09,10.0,SSE,4.6,-,N/A,,Clear,150,2013-01-13 20:35:00
3:55 PM,66.7,61.0,82,30.10,10.0,South,4.6,-,N/A,,Clear,170,2013-01-13 20:55:00
4:15 PM,65.3,59.9,83,30.11,10.0,Calm,Calm,-,N/A,,Clear,0,2013-01-13 21:15:00
4:35 PM,65.3,60.1,83,30.11,10.0,Calm,Calm,-,N/A,,Clear,0,2013-01-13 21:35:00
4:55 PM,65.3,61.0,86,30.11,10.0,Calm,Calm,-,N/A,,Clear,0,2013-01-13 21:55:00
5:15 PM,64.0,60.6,89,30.11,10.0,Calm,Calm,-,N/A,,Clear,0,2013-01-13 22:15:00
5:35 PM,61.7,59.0,91,30.11,5.0,Calm,Calm,-,N/A,,Clear,0,2013-01-13 22:35:00
5:55 PM,59.7,57.0,91,30.11,4.0,Calm,Calm,-,N/A,,Clear,0,2013-01-13 22:55:00
6:15 PM,58.1,55.8,92,30.11,0.8,Calm,Calm,-,N/A,,Mist,0,2013-01-13 23:15:00
6:35 PM,57.6,55.4,92,30.10,2.0,SE,3.5,-,N/A,,Clear,140,2013-01-13 23:35:00
6:55 PM,57.7,55.6,92,30.09,5.0,SE,3.5,-,N/A,,Clear,140,2013-01-13 23:55:00
7:15 PM,57.7,55.6,92,30.09,1.0,SSE,3.5,-,N/A,,Mist,150,2013-01-14 00:15:00
7:35 PM,58.1,55.8,92,30.09,5.0,SSE,4.6,-,N/A,,Clear,160,2013-01-14 00:35:00
7:55 PM,58.8,56.5,92,30.08,7.0,SSE,4.6,-,N/A,,Clear,160,2013-01-14 00:55:00
8:15 PM,58.3,55.9,92,30.08,7.0,South,4.6,-,N/A,,Clear,170,2013-01-14 01:15:00
8:55 PM,57.9,55.6,92,30.07,10.0,SSE,5.8,-,N/A,,Clear,160,2013-01-14 01:55:00
9:15 PM,59.0,56.3,91,30.07,10.0,South,4.6,-,N/A,,Clear,180,2013-01-14 02:15:00
9:35 PM,57.7,55.2,91,30.08,10.0,South,4.6,-,N/A,,Clear,180,2013-01-14 02:35:00
9:55 PM,57.6,55.0,91,30.08,10.0,South,4.6,-,N/A,,Clear,170,2013-01-14 02:55:00
10:35 PM,57.2,54.7,91,30.09,10.0,South,4.6,-,N/A,,Clear,180,2013-01-14 03:35:00
10:55 PM,59.2,56.5,91,30.10,10.0,South,4.6,-,N/A,,Clear,180,2013-01-14 03:55:00
11:15 PM,59.7,57.0,91,30.09,10.0,South,4.6,-,N/A,,Clear,190,2013-01-14 04:15:00
11:35 PM,59.0,56.1,90,30.10,10.0,SSW,3.5,-,N/A,,Clear,200,2013-01-14 04:35:00
11:55 PM,60.1,56.8,89,30.09,10.0,SSW,4.6,-,N/A,,Clear,200,2013-01-14 04:55:00